Погода Маслянино

Погода Маслянино : погода сейчас, прогноз погоды и архив. Всё, что Вы хотите узнать о погоде Маслянино!

Хотите узнать прогноз погоды Маслянино? Тогда Вам сюда: Погода Маслянино

Поиск расширенной информации на нашем сайте:

Другие новости

Новости СМИ2

Главная страница сайта

Новости сайта

03.07.2017

Напоминаем, что на нашем специализированном сайте Метеоцентр.Азия вы можете получить высокодетализированные автоматические прогнозы погоды по пунктам России, СНГ и мира в авиационном формате (включающие направление и скорость ветра, видимость, явления погоды, количество и форму облачности, нижнюю и верхнюю границу облачности).

Рекомендуем: Ремонт - Евроремонт офиса, екатеринбург

Погода Маслянино - сегодня

Время (UTC), дата Ветер
(°,м/с) 
Видим.   Явления Облачность Т
(°С)
Тd
(°С)
f(%) Тe
(°С)
Pmin
(гПа)
dP
(гПа)
Po
(мм)
O2
(г/м3)
Тmin Tmax R s Состояние
почвы
21 18.04.18 тихо ()   20000 м    ясно 
-7.4 -9.5 85 -7  1023.6  0.1  748  311           
00 19.04.18 тихо ()   20000 м    ясно 
-8.5 -9.2 95 -9  1023.9  0.2  749  312  -9.1         
03 19.04.18 090 (В) 20000 м    10/0 верхняя 
[Ci fib]
+0.6 -9 49 1022  -1  748  302           
06 19.04.18 150 (ЮВ) 20000 м    10/0 верхняя 
[Ci fib]
+3.3 -12.6 30 +3  1019.9  -1.8  746  298           
09 19.04.18 100 (В) 20000 м    10/0 верхняя 
[Ci fib]
+5.6 -13 25 +5  1017.6  -2  745  295           
12 19.04.18 190 (Ю) 20000 м    3/0 верхняя 
[Ci fib]
+5.7 -14.4 22 +7  1016.6  -1  744  295    +6.2       
15 19.04.18 280 (З) 20000 м    ясно 
-2 -9 59 -1  1018.1  0.7  745  303           
18 19.04.18 тихо ()   20000 м    ясно 
-5.4 -10.1 69 -5  1019.3  0.9  745  307           
21 19.04.18 270 (З) 20000 м    ясно 
-7.1 -9.2 85 -7  1020.8  1.3  746  310           
00 20.04.18 130 (ЮВ) 20000 м    1/0 верхняя 
[Ci fib]
-7.6 -8.7 92 -9  1022.4  1.6  748  311  -8.5         
03 20.04.18 220 (ЮЗ) 20000 м    ясно 
+5 -8.2 38 +2  1021.9  0.6  748  297           
09 20.04.18 210 (ЮЗ) 6{13}  20000 м    8/4 600 м верхняя 
[Cu hum|Ci fib]
+9 -6.7 32 +7  1020.4  -0.9  747  292           
12 20.04.18 210 (ЮЗ) 6{12}  20000 м    6/0 верхняя 
[Ci fib]
+8.4 -6.4 34 +7  1019.4  -1.1  746  292    +9.2       
15 20.04.18 180 (Ю) 20000 м    3/0 верхняя 
[Ci fib]
+3.8 -3.8 58 +1  1019.9  0.1  746  297           
18 20.04.18 180 (Ю) 20000 м    10/0 верхняя 
[Ci fib]
+2.2 -2.7 70 1018.9  -1.1  746  298           
21 20.04.18 190 (Ю) 20000 м    10/0 верхняя 
[Ci fib]
+2.7 -2.2 70 1017.5  -1.3  745  297           
00 21.04.18 170 (Ю) 20000 м    10/0 средняя 
[Ac und]
+3.2 -1.9 69 +1  1017.5  0.1  745  297  +1.5         
03 21.04.18 180 (Ю) 20000 м    10/10 600 м 
[Sc]
+5.9 -1.5 59 +4  1017.2  -0.1  745  294           
06 21.04.18 180 (Ю) 6{10}  20000 м    10/0 средняя 
[Ac und]
+10.8 -0.8 45 +9  1016.5  -0.2  744  289           
09 21.04.18 180 (Ю) 6{10}  20000 м    10/0 средняя 
[As trans]
+14.5 +0.2 38 +14  1014.9  -1.3  743  284           
12 21.04.18 190 (Ю) 6{10}  20000 м    8/0 верхняя 
[Ci fib]
+15.3 -0.6 34 +15  1013.6  -1.2  743  283    +16.6       
15 21.04.18 190 (Ю) 5{10}  20000 м    10/0 средняя, верхняя 
[Ac trans|Ci fib]
+11.7 -1.2 41 +11  1014  0.1  743  287           
18 21.04.18 190 (Ю) 20000 м    10/0 верхняя 
[Ci fib]
+8.4 -1.4 50 +7  1013.9  -0.4  742  290           
21 21.04.18 140 (ЮВ) 20000 м    ясно 
+4.9 -2.7 58 +6  1012.9  -1.3  741  294           
00 22.04.18 180 (Ю) 20000 м    10/0 средняя, верхняя 
[Ac trans|Ci fib]
+5.2 -3.9 52 +4  1011.2  -1.6  740  293  +3         
Время (UTC), дата Ветер
(°,м/с) 
Видим.   Явления Облачность Т
(°С)
Тd
(°С)
f(%) Тe
(°С)
Pmin
(гПа)
dP
(гПа)
Po
(мм)
O2
(г/м3)
Тmin Tmax R s Состояние
почвы

Для получения пояснительной информации подведите курсор к названию столбца.

ПОГОДА Маслянино - архив

Всё, что Вы хотите узнать о погоде Маслянино - удобно и подробно!

Выберите нужную дату (начиная с 1 января 2015* года) и нажмите кнопку "Найти".
Будут отображены архивные сводки погоды по пункту Маслянино, начиная с указанной даты.


Отображать данные в формате CSV (для использования в таблицах Excel)


Внимание! Наш архив погоды предназначен исключительно для личного некоммерческого использования в познавательных целях. Если Вам необходимы официальные справки о состоянии погоды (для производственных, юридических, коммерческих и т.п. целей), обращайтесь в органы Росгидромета.

*Примечание: данная дата относится к архиву по метеостанциям СССР (Россия, СНГ, Балтия).
Архив по метеостанциям Зарубежной Европы и Азии (кроме Китая) хранится 10 дней, по другим регионам земного шара (Китай, Африка, Америка, Австралия, Океания) - 1 день.

Маслянино - район местоположения метеостанции


Название, широта, долгота, высота метеостанции:
Маслянино 54.3°ш. 84.2°д. 198 м над ур. моря [Российская Федерация]

Дополнительная информация

В oтличие oт бoльшинства пoгoдных сайтoв мы публикуем пoдрoбную метеoинфoрмацию в детальнoм прoфессиoнальнoм фoрмате.

Характеристики температуры и влажнoсти вoздуха измеряются на высoте 2 м в тени вдали oт зданий и деревьев.
Скoрoсть ветра измеряется на высoте 10 м (на урoвне рoста челoвека скoрoсть ветра ниже в 1.5-2 раза). Если метеoстанция нахoдится в гoрoде или в лесу, тo скoрoсть ветра занижена на 2-4 м/с пo сравнению с oткрытым местoм. Скoрoсть ветра над акватoриями крупных рек и oзёр, а также на вершинах хoлмoв на 2-5 м/с выше, чем в oбычных услoвиях.
Атмoсфернoе давление в разных тoчках местнoсти мoжет значительнo oтличаться oт давления на метеoстанции, в зависимoсти oт услoвий рельефа (при пoдъёме на 10 м давление пoнижается примернo на 1 мм рт.ст.).